Regional Weather Roundup
Issued by NWS Northern Indiana

Home | Current Version | Previous Version | Text Only | Print | Product List | Glossary On
Versions: 1 2 3 4 5 6 7 8 9 10 11 12 13 14 15 16 17 18 19 20 21 22 23 24 25 26 27 28 29 30 31 32 33 34 35 36 37 38 39 40 41 42 43 44 45 46 47 48 49 50
000
ASUS43 KIWX 281000
RWRIWX

KIWX WEATHER ROUNDUP
NATIONAL WEATHER SERVICE NORTHERN INDIANA
600 AM EDT SAT MAR 28 2015

NOTE: "FAIR" INDICATES FEW OR NO CLOUDS BELOW 12,000 FEET WITH NO
SIGNIFICANT WEATHER AND/OR OBSTRUCTIONS TO VISIBILITY.

* THESE STATIONS ARE NOT UNDER NWS QUALITY CONTROL. THEY ALSO MAY NOT
  REPORT WEATHER SUCH AS PRECIPITATION OR FOG.

INZ001>027-281100-
NORTHERN INDIANA

CITY           SKY/WX    TMP DP  RH WIND       PRES   REMARKS
GARY*          CLEAR     25   9  50 NE9       30.24R WCI  15
SOUTH BEND     FAIR      13   6  74 N6        30.22R WCI   4
GOSHEN         CLEAR     14   7  73 N6        30.20R WCI   5
ANGOLA*        CLEAR     14   7  73 E3        30.18R
FORT WAYNE     CLEAR     18  11  74 NE8       30.19R WCI   8
PERU/GRISSOM   CLEAR     17  11  78 N7        30.18R WCI   8

$$
INZ028>050-281100-
CENTRAL INDIANA

CITY           SKY/WX    TMP DP  RH WIND       PRES   REMARKS
LAFAYETTE      CLEAR     16  13  88 N5        30.22R WCI   9
KOKOMO*          N/A     18  10  73 N7        30.19R WCI   8
MUNCIE*        CLEAR     18  14  84 N5        30.17R WCI  11
INDIANAPOLIS   PTCLDY    18  12  77 NW7       30.18R WCI   9

$$
MIZ043>046-050>051-056>058-064>065-071>073-077>080-281100-
SOUTHWEST LOWER MICHIGAN

CITY           SKY/WX    TMP DP  RH WIND       PRES   REMARKS
BATTLE CREEK   CLEAR     14   5  67 N5        30.21R WCI   6
BENTON HARBOR  CLEAR     14   4  64 NE3       30.24R
COLDWATER*     CLEAR     15   7  70 CALM      30.19R
HILLSDALE*     CLEAR     13   6  73 NW3       30.16R
HOLLAND        CLEAR     15   4  61 CALM      30.25R
GRAND RAPIDS   CLEAR     13   3  64 NE3       30.22R
KALAMAZOO      CLEAR     15   4  61 N5        30.21R WCI   8
STURGIS*       CLEAR     14   7  73 CALM      30.19R
THREE RIVERS*  FAIR      16   7  66 NE3       30.22R

$$
OHZ001>008-015>018-024>025-281100-
NORTHWEST OHIO

CITY           SKY/WX    TMP DP  RH WIND       PRES   REMARKS
DEFIANCE       CLEAR     17   7  64 N6        30.21R WCI   9
FINDLAY        CLEAR     17   6  62 NW5       30.17R WCI  10
TOLEDO EXPRESS CLEAR     15   6  67 N6        30.19R WCI   6
TOLEDO METCALF CLOUDY    19   5  54 N12       30.20R WCI   7
LIMA           CLOUDY    20   7  57 N10       30.16R WCI   9

$$
AND FOR LAKE MICHIGAN COASTAL AND OPEN LAKE BUOY OBSERVATIONS

STATION/POSITION TEMP    WIND        PRES    VSBY  WAVE
                 AIR SEA DIR/SP/G                  HT/PER
                 (F)     (DEG/KT/KT) (MB)    (MI)  (FT/S)
CALUMET HARBOR    25      10/ 10/ 12 1022.5R
MICHIGAN CITY     20      60/  7/  9   N/A
BURNS HARBOR      23      40/ 10/ 13 1024.0R
SAINT JOSEPH      16      20/  2/  6 1024.0S

$$
&&



USA.gov is the U.S. government's official web portal to all federal, state and local government web resources and services.